Weather History for Wink, TX

Change the Weather History Date:

Thursday, April 10, 2014

  Actual Average Record
Temperature  
Mean Temperature 71 °F -  
Max Temperature 91 °F 81 °F 97 °F (1972)
Min Temperature 51 °F 48 °F 31 °F (1952)
Cooling Degree Days 6    
Growing Degree Days 21 (Base 50)    
Moisture  
Dew Point 14 °F    
Average Humidity 16    
Maximum Humidity 38    
Minimum Humidity 4    
Precipitation  
Precipitation 0.00 in - - ()
Sea Level Pressure  
Sea Level Pressure 29.84 in    
Wind  
Wind Speed 10 mph (SE)    
Max Wind Speed 12 mph    
Max Gust Speed -    
Visibility 10 miles    
Events      
Averages and records for this station are not official NWS values.
T = Trace of Precipitation, MM = Missing Value Source: NWS Daily Summary

Daily Weather History Graph

Daily Weather History Graph

Search for Another Location

Airport:

Trip Planner

Search our weather history database for the weather conditions in past years. The results will help you decide how hot, cold, wet, or windy it might be!

Date:

Astronomy

Apr. 10, 2014 Rise Set
Actual Time 7:30 AM CDT 8:18 PM CDT
Civil Twilight 7:05 AM CDT 8:43 PM CDT
Nautical Twilight 6:36 AM CDT 9:12 PM CDT
Astronomical Twilight 6:06 AM CDT 9:42 PM CDT
Moon 4:19 PM CDT (4/10) 4:38 AM CDT (4/10)
Length of Visible Light 13h 38m
Length of Day
12h 48m
Waxing Gibbous, 80% of the Moon is Illuminated
Apr 10
Waxing Gibbous
Apr 15
Full
Apr 22
Last Quarter
Apr 29
New
May 6
First Quarter

Hourly Weather History & Observations

Time (CDT) Temp. Dew Point Humidity Pressure Visibility Wind Dir Wind Speed Gust Speed Precip Events Conditions
12:53 AM 66.0 °F 21.9 °F 19% 29.86 in 10.0 mi SE 11.5 mph - N/A   Clear
1:53 AM 64.0 °F 23.0 °F 21% 29.84 in 10.0 mi SE 11.5 mph - N/A   Clear
2:53 AM 60.1 °F 24.1 °F 25% 29.83 in 10.0 mi SE 6.9 mph - N/A   Clear
3:53 AM 55.9 °F 24.1 °F 29% 29.82 in 10.0 mi SE 9.2 mph - N/A   Clear
4:53 AM 51.1 °F 24.1 °F 35% 29.83 in 10.0 mi ESE 8.1 mph - N/A   Clear
5:53 AM 54.0 °F 25.0 °F 33% 29.82 in 10.0 mi SE 10.4 mph - N/A   Clear
6:53 AM 51.1 °F 26.1 °F 38% 29.84 in 10.0 mi SE 9.2 mph - N/A   Clear
7:53 AM 53.1 °F 28.0 °F 38% 29.86 in 10.0 mi North - - N/A   Clear
8:53 AM 60.8 °F 28.4 °F 29% 29.99 in 10.0 mi SE 5.8 mph - N/A   Clear
9:53 AM 68.0 °F 28.9 °F 23% 29.89 in 10.0 mi North - - N/A   Clear
10:53 AM 73.0 °F 19.9 °F 14% 29.90 in 10.0 mi North - - N/A   Clear
11:53 AM 79.0 °F 16.0 °F 9% 29.90 in 10.0 mi North - - N/A   Clear
12:53 PM 88.0 °F 8.1 °F 5% 29.87 in 10.0 mi North - - N/A   Clear
1:53 PM 88.0 °F 8.1 °F 5% 29.85 in 10.0 mi North - - N/A   Clear
2:53 PM 89.1 °F 5.0 °F 4% 29.83 in 10.0 mi North - - N/A   Clear
3:53 PM 91.0 °F 5.0 °F 4% 29.81 in 10.0 mi North - - N/A   Clear
4:53 PM 91.0 °F 3.9 °F 4% 29.80 in 10.0 mi North - - N/A   Clear
5:53 PM 90.0 °F 3.9 °F 4% 29.78 in 10.0 mi North - - N/A   Clear
6:53 PM 90.0 °F -2.0 °F 4% 29.77 in 10.0 mi North - - N/A   Clear
7:53 PM 86.0 °F 1.0 °F 4% 29.78 in 10.0 mi North - - N/A   Clear
8:53 PM 75.0 °F 3.9 °F 6% 29.80 in 10.0 mi North - - N/A   Clear
9:53 PM 70.0 °F 3.9 °F 7% 29.81 in 10.0 mi North - - N/A   Clear
10:53 PM 71.1 °F 3.0 °F 7% 29.82 in 10.0 mi North - - N/A   Clear
11:53 PM 66.0 °F 3.0 °F 8% 29.81 in 10.0 mi North - - N/A   Clear